Location: Eaton
(41.3139°N, 82.0207°W)
Time: 01:38:40
(UTC+00:00)

Cosmos 1603 - Pass Details

Date: 17 June 2021
Orbit: 832 x 858 km, 71.0° (Epoch: 02 August)

Event Time Altitude Azimuth Distance (km) Brightness Sun altitude
Exits shadow 07:28:17 34° 234° (SW) 1,375 4.3 -19.6°
Maximum altitude 07:30:38 57° 297° (WNW) 988 4.0 -19.4°
Drops below altitude 10° 07:36:13 10° 16° (NNE) 2,468 7.3 -18.9°
Sets 07:38:43 0° 21° (NNE) 3,402 8.4 -18.7°
